Location: Lombard
(41.8800°N, 88.0080°W)
Time: 10:23:47
(UTC-05:00)

A-11 Canister half - Pass Details

Date: 14 February 2023
Orbit: 1512 x 1687 km, 47.2° (Epoch: 26 March)

Event Time Altitude Azimuth Distance (km) Brightness Sun altitude
Rises 06:01:24 0° 199° (SSW) 4,923 11.6 -9.5°
Reaches altitude 10° 06:05:02 10° 190° (S) 3,928 11.2 -8.9°
Maximum altitude 06:13:31 32° 132° (SE) 2,555 10.9 -7.3°
Drops below altitude 10° 06:21:48 10° 74° (ENE) 3,847 12.2 -5.8°
Sets 06:25:17 0° 65° (ENE) 4,809 12.5 -5.2°
